Location: A�t Bou Chrif
(32.7193°N, 5.2385°W)
Time: 00:41:50
(UTC+00:00)

Cosmos 1500 Rocket - Pass Details

Date: 08 August 2020
Orbit: 604 x 630 km, 82.5° (Epoch: 18 September)

Event Time Altitude Azimuth Distance (km) Brightness Sun altitude
Rises 20:03:56 0° 184° (S) 2,844 6.7 -10.7°
Reaches altitude 10° 20:06:08 10° 183° (S) 1,943 5.9 -11.2°
Maximum altitude 20:10:26 84° 95° (E) 611 3.4 -12.0°
Drops below altitude 10° 20:14:46 10° 8° (N) 1,955 6.4 -12.8°
Sets 20:16:59 0° 7° (N) 2,864 7.3 -13.2°
